DW8548 Weather Reports


time (UTC)temp
C
wind
direction
speed
KPH
gust
KPH
rain 1hr
cm
rain 24hr
cm
rain mn
cm
humidity
%
barometer
mb
20260508201557 11 314 0.0 3.2 0.00 0.00 0.00 65 1026.3
20260508200054 12 0 0.0 1.6 0.00 0.00 0.00 62 1026.1
20260508194555 13 0 0.0 3.2 0.00 0.00 0.00 60 1026.1
20260508193107 13 0 0.0 3.2 0.00 0.00 0.00 59 1026.0
20260508191557 13 0 0.0 3.2 0.00 0.00 0.00 59 1026.0
20260508190106 13 75 0.0 1.6 0.00 0.00 0.00 59 1025.9
20260508184602 13 0 0.0 3.2 0.00 0.00 0.00 58 1026.0
20260508183111 14 0 0.0 6.4 0.00 0.00 0.00 56 1026.1
20260508181552 14 0 0.0 14.5 0.00 0.00 0.00 56 1026.0
20260508174606 15 64 0.0 4.8 0.00 0.00 0.00 55 1026.0
20260508173056 15 0 0.0 9.7 0.00 0.00 0.00 54 1025.9
20260508171553 15 56 1.6 12.9 0.00 0.00 0.00 54 1026.0
20260508170104 15 0 1.6 11.3 0.00 0.00 0.00 53 1026.0
20260508164600 15 17 1.6 6.4 0.00 0.00 0.00 53 1026.1
20260508163054 15 115 1.6 4.8 0.00 0.00 0.00 53 1026.0
20260508161605 15 76 0.0 4.8 0.00 0.00 0.00 54 1025.9
20260508160056 13 0 0.0 1.6 0.00 0.00 0.00 60 1025.9
20260508154553 14 0 0.0 3.2 0.00 0.00 0.00 56 1026.0
20260508153057 15 0 0.0 1.6 0.00 0.00 0.00 54 1026.1
20260508151555 15 0 0.0 1.6 0.00 0.00 0.00 52 1026.1
20260508150055 16 0 0.0 3.2 0.00 0.00 0.00 50 1026.1
20260508144553 16 0 0.0 8.0 0.00 0.00 0.00 50 1026.1
20260508143059 16 68 0.0 4.8 0.00 0.00 0.00 53 1026.2
20260508141603 14 0 0.0 6.4 0.00 0.00 0.00 60 1026.2
20260508140054 12 0 0.0 0.0 0.00 0.00 0.00 68 1026.1
20260508134554 13 0 0.0 0.0 0.00 0.00 0.00 64 1026.3
20260508133053 14 0 0.0 0.0 0.00 0.00 0.00 63 1026.2
20260508131607 15 0 0.0 1.6 0.00 0.00 0.00 59 1026.1
20260508130057 15 0 0.0 4.8 0.00 0.00 0.00 58 1026.2
20260508124552 15 0 0.0 1.6 0.00 0.00 0.00 58 1026.1
20260508123115 16 0 0.0 3.2 0.00 0.00 0.00 57 1026.0
20260508121608 16 0 0.0 3.2 0.00 0.00 0.00 55 1025.9
20260508120107 17 109 0.0 3.2 0.00 0.00 0.00 55 1026.0
20260508114600 17 0 0.0 3.2 0.00 0.00 0.00 54 1025.9
20260508113107 17 57 0.0 6.4 0.00 0.00 0.00 54 1026.0
20260508111556 17 0 0.0 4.8 0.00 0.00 0.00 54 1025.9
20260508110106 17 0 0.0 4.8 0.00 0.00 0.00 54 1026.0
20260508104551 17 0 0.0 3.2 0.00 0.00 0.00 55 1026.0
20260508103104 17 0 0.0 0.0 0.00 0.00 0.00 52 1025.9
20260508101558 18 0 0.0 4.8 0.00 0.00 0.00 50 1025.8
20260508100059 19 0 0.0 4.8 0.00 0.00 0.00 48 1025.7
20260508094551 20 40 1.6 6.4 0.00 0.00 0.00 47 1025.6
20260508093104 20 0 1.6 6.4 0.00 0.00 0.00 48 1025.6
20260508091557 20 0 1.6 11.3 0.00 0.00 0.00 47 1025.5
20260508084558 21 0 0.0 9.7 0.00 0.00 0.00 44 1025.2
20260508083103 21 58 1.6 8.0 0.00 0.00 0.00 45 1025.2
20260508081601 21 101 1.6 12.9 0.00 0.00 0.00 44 1025.1
20260508080056 22 57 1.6 9.7 0.00 0.00 0.00 44 1025.2
20260508074554 22 78 3.2 9.7 0.00 0.00 0.00 44 1025.2
20260508073055 22 202 1.6 9.7 0.00 0.00 0.00 44 1025.2
20260508071558 23 58 1.6 17.7 0.00 0.00 0.00 44 1025.2
20260508070059 23 164 1.6 11.3 0.00 0.00 0.00 43 1025.2
20260508064555 23 104 1.6 12.9 0.00 0.00 0.00 44 1025.4
20260508063103 23 30 1.6 11.3 0.00 0.00 0.00 44 1025.5
20260508062126 23 0 1.6 16.1 0.00 0.00 0.00 44 1025.5
20260508053106 23 36 0.0 9.7 0.00 0.00 0.00 47 1026.1
20260508051554 22 0 1.6 12.9 0.00 0.00 0.00 47 1026.3
20260508044554 22 334 3.2 14.5 0.00 0.00 0.00 49 1026.7
20260508043100 21 313 1.6 16.1 0.00 0.00 0.00 48 1026.9
20260508041602 21 271 1.6 8.0 0.00 0.00 0.00 49 1027.3
20260508040052 21 0 1.6 8.0 0.00 0.00 0.00 51 1027.6
20260508034611 21 360 1.6 8.0 0.00 0.00 0.00 51 1027.9
20260508033058 21 314 1.6 9.7 0.00 0.00 0.00 52 1028.3
20260508031557 20 70 1.6 9.7 0.00 0.00 0.00 54 1028.4
20260508030054 20 288 1.6 9.7 0.00 0.00 0.00 54 1028.7
20260508024555 19 83 1.6 9.7 0.00 0.00 0.00 56 1028.8
20260508023056 18 0 1.6 6.4 0.00 0.00 0.00 59 1028.9
20260508021600 18 144 0.0 6.4 0.00 0.00 0.00 60 1029.1
20260508020100 17 0 1.6 11.3 0.00 0.00 0.00 62 1029.1
20260508014556 17 31 1.6 14.5 0.00 0.00 0.00 63 1029.3
20260508013057 17 231 1.6 8.0 0.00 0.00 0.00 65 1029.5
20260508011603 16 0 0.0 8.0 0.00 0.00 0.00 68 1029.6
20260508010056 15 0 1.6 12.9 0.00 0.00 0.00 69 1029.8
20260508004553 15 104 0.0 6.4 0.00 0.00 0.00 71 1030.0
20260508003057 14 0 1.6 8.0 0.00 0.00 0.00 72 1030.0
20260508001613 13 83 0.0 4.8 0.00 0.00 0.00 73 1030.0
20260508000055 13 0 0.0 4.8 0.00 0.00 0.00 74 1030.0
20260507234553 12 80 0.0 6.4 0.00 0.00 0.00 75 1029.9
20260507233052 12 84 1.6 4.8 0.00 0.00 0.00 75 1029.6
20260507231555 12 0 0.0 4.8 0.00 0.00 0.00 75 1029.4
20260507230053 11 0 0.0 3.2 0.00 0.00 0.00 75 1029.3
20260507224600 11 0 0.0 1.6 0.00 0.00 0.00 74 1029.2
20260507223055 11 0 0.0 1.6 0.00 0.00 0.00 74 1029.0
20260507221551 11 0 0.0 0.0 0.00 0.00 0.00 73 1029.1
20260507220053 12 0 0.0 1.6 0.00 0.00 0.00 72 1029.1
20260507214600 12 0 0.0 1.6 0.00 0.00 0.00 71 1029.1
20260507213058 13 0 0.0 4.8 0.00 0.00 0.00 69 1029.1
20260507211555 13 0 0.0 3.2 0.00 0.00 0.00 68 1029.0
20260507210056 13 0 0.0 4.8 0.00 0.00 0.00 68 1029.0
20260507204559 13 96 0.0 4.8 0.00 0.00 0.00 67 1029.0
20260507203053 13 0 0.0 3.2 0.00 0.00 0.00 67 1028.9